Time,TemperatureF,DewpointF,PressureIn,WindDirection,WindDirectionDegrees,WindSpeedMPH,WindSpeedGustMPH,Humidity,HourlyPrecipIn,Conditions,Clouds,dailyrainin,SolarRadiationWatts/m^2,SoftwareType,DateUTC
2013-06-17 00:00:00,60.5,49.9,30.09,SE,144,2.0,2.0,68,0.00,,,0.00,0,Wunderground v.1.15,2013-06-17 07:00:00,
2013-06-17 00:10:00,60.2,49.6,30.09,SSE,150,2.0,2.0,68,0.00,,,0.00,0,Wunderground v.1.15,2013-06-17 07:10:00,
2013-06-17 00:20:00,59.9,49.7,30.09,South,178,2.0,2.0,69,0.00,,,0.00,0,Wunderground v.1.15,2013-06-17 07:20:00,
2013-06-17 00:30:00,59.7,49.5,30.09,SSE,165,2.0,2.0,69,0.00,,,0.00,0,Wunderground v.1.15,2013-06-17 07:30:00,
2013-06-17 00:40:00,59.4,49.6,30.09,SE,140,1.0,4.0,70,0.00,,,0.00,0,Wunderground v.1.15,2013-06-17 07:40:00,
2013-06-17 00:50:00,59.1,49.7,30.09,SSE,150,2.0,2.0,71,0.00,,,0.00,0,Wunderground v.1.15,2013-06-17 07:50:00,
2013-06-17 01:00:00,59.0,49.6,30.09,SE,138,1.0,1.0,71,0.00,,,0.00,0,Wunderground v.1.15,2013-06-17 08:00:00,
2013-06-17 01:10:00,58.9,49.9,30.09,SE,134,2.0,3.0,72,0.00,,,0.00,0,Wunderground v.1.15,2013-06-17 08:10:00,
2013-06-17 01:20:00,58.6,49.6,30.09,SE,137,2.0,2.0,72,0.00,,,0.00,0,Wunderground v.1.15,2013-06-17 08:20:00,
2013-06-17 01:30:00,58.3,49.7,30.09,SE,139,2.0,3.0,73,0.00,,,0.00,0,Wunderground v.1.15,2013-06-17 08:30:00,
2013-06-17 01:40:00,58.0,49.8,30.09,SE,142,2.0,2.0,74,0.00,,,0.00,0,Wunderground v.1.15,2013-06-17 08:40:00,
2013-06-17 01:50:00,57.8,49.6,30.09,SE,138,2.0,5.0,74,0.00,,,0.00,0,Wunderground v.1.15,2013-06-17 08:50:00,
2013-06-17 02:00:00,57.6,49.7,30.09,SE,146,2.0,2.0,75,0.00,,,0.00,0,Wunderground v.1.15,2013-06-17 09:00:00,
2013-06-17 02:10:00,57.4,49.9,30.08,SE,144,3.0,6.0,76,0.00,,,0.00,0,Wunderground v.1.15,2013-06-17 09:10:00,
2013-06-17 02:20:00,57.3,49.8,30.09,SSE,158,3.0,3.0,76,0.00,,,0.00,0,Wunderground v.1.15,2013-06-17 09:20:00,
2013-06-17 02:30:00,57.2,50.1,30.09,SE,144,3.0,4.0,77,0.00,,,0.00,0,Wunderground v.1.15,2013-06-17 09:30:00,
2013-06-17 02:40:00,57.1,50.0,30.08,SE,143,2.0,2.0,77,0.00,,,0.00,0,Wunderground v.1.15,2013-06-17 09:40:00,
2013-06-17 02:50:00,56.9,49.8,30.08,SE,142,2.0,4.0,77,0.00,,,0.00,0,Wunderground v.1.15,2013-06-17 09:50:00,
2013-06-17 03:00:00,56.6,49.8,30.08,SE,138,2.0,4.0,78,0.00,,,0.00,0,Wunderground v.1.15,2013-06-17 10:00:00,
2013-06-17 03:10:00,56.4,49.6,30.09,SE,140,2.0,2.0,78,0.00,,,0.00,0,Wunderground v.1.15,2013-06-17 10:10:00,
2013-06-17 03:20:00,56.2,49.8,30.08,SE,144,3.0,4.0,79,0.00,,,0.00,0,Wunderground v.1.15,2013-06-17 10:20:00,
2013-06-17 03:30:00,56.0,49.6,30.08,SSE,155,2.0,2.0,79,0.00,,,0.00,0,Wunderground v.1.15,2013-06-17 10:30:00,
2013-06-17 03:40:00,56.0,49.6,30.08,SE,137,2.0,2.0,79,0.00,,,0.00,0,Wunderground v.1.15,2013-06-17 10:40:00,
2013-06-17 03:50:00,55.9,49.5,30.08,SE,145,3.0,6.0,79,0.00,,,0.00,0,Wunderground v.1.15,2013-06-17 10:50:00,
2013-06-17 04:00:00,55.7,49.3,30.08,SE,144,4.0,4.0,79,0.00,,,0.00,0,Wunderground v.1.15,2013-06-17 11:00:00,
2013-06-17 04:10:00,55.6,49.2,30.08,SSE,167,4.0,5.0,79,0.00,,,0.00,0,Wunderground v.1.15,2013-06-17 11:10:00,
2013-06-17 04:20:00,55.6,49.2,30.08,SSE,150,4.0,4.0,79,0.00,,,0.00,0,Wunderground v.1.15,2013-06-17 11:20:00,
2013-06-17 04:30:00,55.5,49.1,30.08,SE,138,2.0,3.0,79,0.00,,,0.00,0,Wunderground v.1.15,2013-06-17 11:30:00,
2013-06-17 04:40:00,55.4,49.0,30.08,SE,143,3.0,3.0,79,0.00,,,0.00,0,Wunderground v.1.15,2013-06-17 11:40:00,
2013-06-17 04:50:00,55.3,49.2,30.08,SSE,148,3.0,3.0,80,0.00,,,0.00,0,Wunderground v.1.15,2013-06-17 11:50:00,
2013-06-17 05:00:00,55.1,49.0,30.08,SE,144,3.0,4.0,80,0.00,,,0.00,0,Wunderground v.1.15,2013-06-17 12:00:00,
2013-06-17 05:10:00,55.0,48.9,30.08,SSE,162,1.0,1.0,80,0.00,,,0.00,0,Wunderground v.1.15,2013-06-17 12:10:00,
2013-06-17 05:20:00,55.0,48.9,30.09,SE,146,1.0,1.0,80,0.00,,,0.00,0,Wunderground v.1.15,2013-06-17 12:20:00,
2013-06-17 05:30:00,54.8,48.7,30.09,SE,137,3.0,5.0,80,0.00,,,0.00,0,Wunderground v.1.15,2013-06-17 12:30:00,
2013-06-17 05:40:00,54.6,48.9,30.09,SSE,154,4.0,5.0,81,0.00,,,0.00,0,Wunderground v.1.15,2013-06-17 12:40:00,
2013-06-17 05:50:00,54.4,49.0,30.09,SE,146,5.0,5.0,82,0.00,,,0.00,0,Wunderground v.1.15,2013-06-17 12:50:00,
2013-06-17 06:00:00,54.2,48.8,30.09,SSE,159,5.0,5.0,82,0.00,,,0.00,7,Wunderground v.1.15,2013-06-17 13:00:00,
2013-06-17 06:10:00,54.3,49.2,30.09,South,176,4.0,6.0,83,0.00,,,0.00,19,Wunderground v.1.15,2013-06-17 13:10:00,
2013-06-17 06:20:00,54.6,49.5,30.09,SSE,163,5.0,5.0,83,0.00,,,0.00,26,Wunderground v.1.15,2013-06-17 13:20:00,
2013-06-17 06:30:00,55.1,50.0,30.09,SE,144,5.0,5.0,83,0.00,,,0.00,46,Wunderground v.1.15,2013-06-17 13:30:00,
2013-06-17 06:40:00,55.5,50.4,30.09,SSE,147,4.0,4.0,83,0.00,,,0.00,39,Wunderground v.1.15,2013-06-17 13:40:00,
2013-06-17 06:50:00,56.0,50.6,30.09,SE,143,4.0,4.0,82,0.00,,,0.00,56,Wunderground v.1.15,2013-06-17 13:50:00,
2013-06-17 07:00:00,56.8,51.0,30.09,SSE,157,3.0,4.0,81,0.00,,,0.00,174,Wunderground v.1.15,2013-06-17 14:00:00,
2013-06-17 07:10:00,57.6,51.5,30.09,SE,146,3.0,3.0,80,0.00,,,0.00,214,Wunderground v.1.15,2013-06-17 14:10:00,
2013-06-17 07:20:00,58.3,51.8,30.10,SE,146,3.0,3.0,79,0.00,,,0.00,248,Wunderground v.1.15,2013-06-17 14:20:00,
2013-06-17 07:30:00,59.0,51.8,30.10,ESE,108,2.0,6.0,77,0.00,,,0.00,281,Wunderground v.1.15,2013-06-17 14:30:00,
2013-06-17 07:40:00,59.0,51.4,30.10,SE,142,2.0,4.0,76,0.00,,,0.00,315,Wunderground v.1.15,2013-06-17 14:40:00,
2013-06-17 07:50:00,60.4,52.1,30.10,SSE,157,5.0,5.0,74,0.00,,,0.00,343,Wunderground v.1.15,2013-06-17 14:50:00,
2013-06-17 08:00:00,61.7,52.2,30.10,South,181,4.0,4.0,71,0.00,,,0.00,376,Wunderground v.1.15,2013-06-17 15:00:00,
2013-06-17 08:10:00,62.6,52.7,30.10,SSE,159,3.0,4.0,70,0.00,,,0.00,410,Wunderground v.1.15,2013-06-17 15:10:00,
2013-06-17 08:20:00,62.5,52.6,30.10,SSE,153,4.0,6.0,70,0.00,,,0.00,439,Wunderground v.1.15,2013-06-17 15:20:00,
2013-06-17 08:30:00,63.2,52.9,30.11,SE,140,3.0,6.0,69,0.00,,,0.00,473,Wunderground v.1.15,2013-06-17 15:30:00,
2013-06-17 08:40:00,64.0,52.8,30.10,SE,141,3.0,3.0,67,0.00,,,0.00,501,Wunderground v.1.15,2013-06-17 15:40:00,
2013-06-17 08:50:00,64.3,53.1,30.10,SE,134,3.0,5.0,67,0.00,,,0.00,534,Wunderground v.1.15,2013-06-17 15:50:00,
2013-06-17 09:00:00,65.6,53.5,30.10,ESE,115,3.0,3.0,65,0.00,,,0.00,566,Wunderground v.1.15,2013-06-17 16:00:00,
2013-06-17 09:10:00,66.7,53.7,30.10,SSE,159,1.0,1.0,63,0.00,,,0.00,573,Wunderground v.1.15,2013-06-17 16:10:00,
2013-06-17 09:20:00,68.2,53.3,30.10,SSE,159,1.0,1.0,59,0.00,,,0.00,223,Wunderground v.1.15,2013-06-17 16:20:00,
2013-06-17 09:30:00,69.1,52.7,30.10,ESE,112,1.0,1.0,56,0.00,,,0.00,656,Wunderground v.1.15,2013-06-17 16:30:00,
2013-06-17 09:40:00,70.9,52.4,30.10,ENE,57,0.0,0.0,52,0.00,,,0.00,684,Wunderground v.1.15,2013-06-17 16:40:00,
2013-06-17 09:50:00,72.5,52.2,30.10,NNW,340,1.0,1.0,49,0.00,,,0.00,712,Wunderground v.1.15,2013-06-17 16:50:00,
2013-06-17 10:00:00,73.1,52.2,30.09,NNE,23,1.0,1.0,48,0.00,,,0.00,737,Wunderground v.1.15,2013-06-17 17:00:00,
2013-06-17 10:10:00,74.0,51.9,30.09,ENE,60,1.0,1.0,46,0.00,,,0.00,763,Wunderground v.1.15,2013-06-17 17:10:00,
2013-06-17 10:20:00,75.2,53.0,30.09,NNE,17,1.0,1.0,46,0.00,,,0.00,786,Wunderground v.1.15,2013-06-17 17:20:00,
2013-06-17 10:30:00,75.7,52.8,30.09,North,5,1.0,1.0,45,0.00,,,0.00,810,Wunderground v.1.15,2013-06-17 17:30:00,
2013-06-17 10:40:00,76.0,53.1,30.09,NNE,24,0.0,0.0,45,0.00,,,0.00,831,Wunderground v.1.15,2013-06-17 17:40:00,
2013-06-17 10:50:00,77.0,52.8,30.09,NE,49,1.0,1.0,43,0.00,,,0.00,851,Wunderground v.1.15,2013-06-17 17:50:00,
2013-06-17 11:00:00,77.8,52.9,30.09,SSW,204,1.0,1.0,42,0.00,,,0.00,823,Wunderground v.1.15,2013-06-17 18:00:00,
2013-06-17 11:10:00,78.7,52.3,30.09,ESE,117,1.0,3.0,40,0.00,,,0.00,886,Wunderground v.1.15,2013-06-17 18:10:00,
2013-06-17 11:20:00,78.2,53.2,30.09,NNW,338,1.0,1.0,42,0.00,,,0.00,905,Wunderground v.1.15,2013-06-17 18:20:00,
2013-06-17 11:30:00,77.8,52.2,30.09,NW,311,1.0,1.0,41,0.00,,,0.00,921,Wunderground v.1.15,2013-06-17 18:30:00,
2013-06-17 11:40:00,77.8,52.9,30.10,SSW,209,1.0,1.0,42,0.00,,,0.00,932,Wunderground v.1.15,2013-06-17 18:40:00,
2013-06-17 11:50:00,78.8,53.8,30.10,NNE,30,1.0,3.0,42,0.00,,,0.00,942,Wunderground v.1.15,2013-06-17 18:50:00,
2013-06-17 12:00:00,78.7,53.7,30.10,East,88,1.0,1.0,42,0.00,,,0.00,953,Wunderground v.1.15,2013-06-17 19:00:00,
2013-06-17 12:10:00,78.2,54.5,30.10,WNW,292,2.0,3.0,44,0.00,,,0.00,965,Wunderground v.1.15,2013-06-17 19:10:00,
2013-06-17 12:20:00,78.7,54.3,30.10,NNE,26,2.0,2.0,43,0.00,,,0.00,976,Wunderground v.1.15,2013-06-17 19:20:00,
2013-06-17 12:30:00,79.5,55.0,30.10,NE,52,2.0,3.0,43,0.00,,,0.00,979,Wunderground v.1.15,2013-06-17 19:30:00,
2013-06-17 12:40:00,80.2,55.0,30.09,NNE,16,1.0,1.0,42,0.00,,,0.00,984,Wunderground v.1.15,2013-06-17 19:40:00,
2013-06-17 12:50:00,80.1,54.9,30.09,NE,46,2.0,3.0,42,0.00,,,0.00,993,Wunderground v.1.15,2013-06-17 19:50:00,
2013-06-17 13:00:00,81.0,55.1,30.09,North,351,1.0,1.0,41,0.00,,,0.00,986,Wunderground v.1.15,2013-06-17 20:00:00,
2013-06-17 13:10:00,80.8,54.2,30.09,SSW,192,1.0,6.0,40,0.00,,,0.00,993,Wunderground v.1.15,2013-06-17 20:10:00,
2013-06-17 13:20:00,81.1,55.8,30.09,West,272,1.0,9.0,42,0.00,,,0.00,991,Wunderground v.1.15,2013-06-17 20:20:00,
2013-06-17 13:30:00,81.4,56.8,30.09,North,351,3.0,3.0,43,0.00,,,0.00,986,Wunderground v.1.15,2013-06-17 20:30:00,
2013-06-17 13:40:00,81.2,54.6,30.09,WSW,255,2.0,3.0,40,0.00,,,0.00,988,Wunderground v.1.15,2013-06-17 20:40:00,
2013-06-17 13:50:00,82.0,55.3,30.09,West,267,3.0,3.0,40,0.00,,,0.00,981,Wunderground v.1.15,2013-06-17 20:50:00,
2013-06-17 14:00:00,80.9,55.7,30.08,West,265,1.0,1.0,42,0.00,,,0.00,979,Wunderground v.1.15,2013-06-17 21:00:00,
2013-06-17 14:10:00,81.8,55.8,30.08,NNE,24,1.0,1.0,41,0.00,,,0.00,969,Wunderground v.1.15,2013-06-17 21:10:00,
2013-06-17 14:20:00,81.4,55.4,30.08,NNE,13,1.0,1.0,41,0.00,,,0.00,965,Wunderground v.1.15,2013-06-17 21:20:00,
2013-06-17 14:30:00,80.5,55.9,30.08,SW,222,1.0,1.0,43,0.00,,,0.00,947,Wunderground v.1.15,2013-06-17 21:30:00,
2013-06-17 14:40:00,81.5,57.5,30.08,North,360,1.0,2.0,44,0.00,,,0.00,932,Wunderground v.1.15,2013-06-17 21:40:00,
2013-06-17 14:50:00,81.8,55.8,30.08,NNW,331,1.0,1.0,41,0.00,,,0.00,921,Wunderground v.1.15,2013-06-17 21:50:00,
2013-06-17 15:00:00,81.3,56.0,30.08,North,9,1.0,2.0,42,0.00,,,0.00,904,Wunderground v.1.15,2013-06-17 22:00:00,
2013-06-17 15:10:00,81.0,56.4,30.08,North,355,1.0,1.0,43,0.00,,,0.00,889,Wunderground v.1.15,2013-06-17 22:10:00,
2013-06-17 15:20:00,81.1,56.5,30.08,NE,37,1.0,4.0,43,0.00,,,0.00,867,Wunderground v.1.15,2013-06-17 22:20:00,
2013-06-17 15:30:00,82.2,56.2,30.08,NW,324,1.0,1.0,41,0.00,,,0.00,842,Wunderground v.1.15,2013-06-17 22:30:00,
2013-06-17 15:40:00,82.8,56.0,30.07,WSW,238,1.0,2.0,40,0.00,,,0.00,824,Wunderground v.1.15,2013-06-17 22:40:00,
2013-06-17 15:50:00,82.8,56.7,30.07,West,270,1.0,1.0,41,0.00,,,0.00,798,Wunderground v.1.15,2013-06-17 22:50:00,
2013-06-17 16:00:00,82.8,56.7,30.07,ENE,70,1.0,1.0,41,0.00,,,0.00,775,Wunderground v.1.15,2013-06-17 23:00:00,
2013-06-17 16:10:00,82.6,55.1,30.07,SW,232,1.0,1.0,39,0.00,,,0.00,751,Wunderground v.1.15,2013-06-17 23:10:00,
2013-06-17 16:20:00,82.9,54.7,30.07,West,264,2.0,2.0,38,0.00,,,0.00,728,Wunderground v.1.15,2013-06-17 23:20:00,
2013-06-17 16:30:00,82.5,54.3,30.07,West,267,2.0,2.0,38,0.00,,,0.00,633,Wunderground v.1.15,2013-06-17 23:30:00,
2013-06-17 16:40:00,82.3,54.9,30.06,West,267,1.0,1.0,39,0.00,,,0.00,673,Wunderground v.1.15,2013-06-17 23:40:00,
2013-06-17 16:50:00,81.9,55.2,30.06,West,270,1.0,1.0,40,0.00,,,0.00,645,Wunderground v.1.15,2013-06-17 23:50:00,
2013-06-17 17:00:00,81.4,54.8,30.06,West,280,1.0,1.0,40,0.00,,,0.00,615,Wunderground v.1.15,2013-06-18 00:00:00,
2013-06-17 17:10:00,80.9,54.3,30.06,West,268,2.0,2.0,40,0.00,,,0.00,585,Wunderground v.1.15,2013-06-18 00:10:00,
2013-06-17 17:20:00,80.4,55.2,30.06,East,96,0.0,3.0,42,0.00,,,0.00,490,Wunderground v.1.15,2013-06-18 00:20:00,
2013-06-17 17:30:00,78.7,55.0,30.06,North,355,1.0,1.0,44,0.00,,,0.00,35,Wunderground v.1.15,2013-06-18 00:30:00,
2013-06-17 17:40:00,77.5,54.5,30.06,West,281,1.0,1.0,45,0.00,,,0.00,33,Wunderground v.1.15,2013-06-18 00:40:00,
2013-06-17 17:50:00,76.6,54.3,30.06,WSW,250,1.0,3.0,46,0.00,,,0.00,33,Wunderground v.1.15,2013-06-18 00:50:00,
2013-06-17 18:00:00,75.7,54.6,30.05,East,88,0.0,2.0,48,0.00,,,0.00,32,Wunderground v.1.15,2013-06-18 01:00:00,
2013-06-17 18:10:00,74.6,55.3,30.05,North,355,1.0,1.0,51,0.00,,,0.00,30,Wunderground v.1.15,2013-06-18 01:10:00,
2013-06-17 18:20:00,74.1,55.3,30.05,WNW,288,1.0,1.0,52,0.00,,,0.00,30,Wunderground v.1.15,2013-06-18 01:20:00,
2013-06-17 18:30:00,73.7,55.0,30.05,South,185,1.0,1.0,52,0.00,,,0.00,26,Wunderground v.1.15,2013-06-18 01:30:00,
2013-06-17 18:40:00,73.2,55.0,30.05,NNW,329,0.0,0.0,53,0.00,,,0.00,26,Wunderground v.1.15,2013-06-18 01:40:00,
2013-06-17 18:50:00,72.8,55.2,30.05,NNW,331,0.0,0.0,54,0.00,,,0.00,25,Wunderground v.1.15,2013-06-18 01:50:00,
2013-06-17 19:00:00,71.7,54.7,30.05,North,5,1.0,1.0,55,0.00,,,0.00,23,Wunderground v.1.15,2013-06-18 02:00:00,
2013-06-17 19:10:00,71.3,54.8,30.05,NW,326,0.0,0.0,56,0.00,,,0.00,21,Wunderground v.1.15,2013-06-18 02:10:00,
2013-06-17 19:20:00,71.0,55.0,30.05,WNW,300,0.0,4.0,57,0.00,,,0.00,19,Wunderground v.1.15,2013-06-18 02:20:00,
2013-06-17 19:30:00,70.4,54.4,30.05,NNW,344,0.0,0.0,57,0.00,,,0.00,18,Wunderground v.1.15,2013-06-18 02:30:00,
2013-06-17 19:40:00,69.5,54.5,30.04,NE,42,1.0,1.0,59,0.00,,,0.00,16,Wunderground v.1.15,2013-06-18 02:40:00,
2013-06-17 19:50:00,68.6,54.6,30.04,NNE,23,1.0,1.0,61,0.00,,,0.00,14,Wunderground v.1.15,2013-06-18 02:50:00,
2013-06-17 20:00:00,68.1,54.6,30.04,NNE,15,0.0,2.0,62,0.00,,,0.00,12,Wunderground v.1.15,2013-06-18 03:00:00,
2013-06-17 20:10:00,67.3,54.3,30.05,North,355,1.0,1.0,63,0.00,,,0.00,9,Wunderground v.1.15,2013-06-18 03:10:00,
2013-06-17 20:20:00,66.7,54.6,30.04,South,169,0.0,3.0,65,0.00,,,0.00,7,Wunderground v.1.15,2013-06-18 03:20:00,
2013-06-17 20:30:00,66.1,54.0,30.04,SSE,163,0.0,0.0,65,0.00,,,0.00,0,Wunderground v.1.15,2013-06-18 03:30:00,
2013-06-17 20:40:00,65.6,53.9,30.05,NW,325,0.0,0.0,66,0.00,,,0.00,0,Wunderground v.1.15,2013-06-18 03:40:00,
2013-06-17 20:50:00,65.2,54.0,30.05,NW,325,0.0,0.0,67,0.00,,,0.00,0,Wunderground v.1.15,2013-06-18 03:50:00,
2013-06-17 21:00:00,64.8,53.6,30.05,NW,325,0.0,0.0,67,0.00,,,0.00,0,Wunderground v.1.15,2013-06-18 04:00:00,
2013-06-17 21:10:00,64.3,53.1,30.06,NW,326,0.0,0.0,67,0.00,,,0.00,0,Wunderground v.1.15,2013-06-18 04:10:00,
2013-06-17 21:20:00,63.5,52.7,30.06,NNW,328,0.0,0.0,68,0.00,,,0.00,0,Wunderground v.1.15,2013-06-18 04:20:00,
2013-06-17 21:30:00,62.5,52.6,30.06,NE,36,0.0,0.0,70,0.00,,,0.00,0,Wunderground v.1.15,2013-06-18 04:30:00,
2013-06-17 21:40:00,61.6,52.9,30.06,NW,324,0.0,0.0,73,0.00,,,0.00,0,Wunderground v.1.15,2013-06-18 04:40:00,
2013-06-17 21:50:00,60.8,52.8,30.06,East,83,0.0,0.0,75,0.00,,,0.00,0,Wunderground v.1.15,2013-06-18 04:50:00,
2013-06-17 22:00:00,60.5,52.9,30.06,South,172,1.0,1.0,76,0.00,,,0.00,0,Wunderground v.1.15,2013-06-18 05:00:00,
2013-06-17 22:10:00,60.3,52.7,30.06,South,170,1.0,3.0,76,0.00,,,0.00,0,Wunderground v.1.15,2013-06-18 05:10:00,
2013-06-17 22:20:00,60.0,52.8,30.06,SE,144,2.0,5.0,77,0.00,,,0.00,0,Wunderground v.1.15,2013-06-18 05:20:00,
2013-06-17 22:30:00,59.7,52.5,30.06,SSE,150,3.0,3.0,77,0.00,,,0.00,0,Wunderground v.1.15,2013-06-18 05:30:00,
2013-06-17 22:40:00,59.6,52.4,30.07,SE,138,1.0,2.0,77,0.00,,,0.00,0,Wunderground v.1.15,2013-06-18 05:40:00,
2013-06-17 22:50:00,59.5,52.3,30.06,SSE,149,2.0,3.0,77,0.00,,,0.00,0,Wunderground v.1.15,2013-06-18 05:50:00,
2013-06-17 23:00:00,59.4,52.5,30.06,SSE,168,1.0,1.0,78,0.00,,,0.00,0,Wunderground v.1.15,2013-06-18 06:00:00,
2013-06-17 23:10:00,59.3,52.4,30.06,SSE,147,1.0,5.0,78,0.00,,,0.00,0,Wunderground v.1.15,2013-06-18 06:10:00,
2013-06-17 23:20:00,59.3,52.4,30.06,SSE,149,1.0,1.0,78,0.00,,,0.00,0,Wunderground v.1.15,2013-06-18 06:20:00,
2013-06-17 23:30:00,59.3,52.4,30.06,SSE,150,0.0,0.0,78,0.00,,,0.00,0,Wunderground v.1.15,2013-06-18 06:30:00,
2013-06-17 23:40:00,59.0,52.1,30.06,SSE,155,1.0,1.0,78,0.00,,,0.00,0,Wunderground v.1.15,2013-06-18 06:40:00,
2013-06-17 23:50:00,59.0,52.1,30.06,SSE,162,1.0,1.0,78,0.00,,,0.00,0,Wunderground v.1.15,2013-06-18 06:50:00,